Weather History for Wilmington, DE

Change the Weather History Date:

Friday, December 27, 2013

  Actual Average Record
Temperature  
Mean Temperature 35 °F 34 °F  
Max Temperature 47 °F 42 °F 65 °F (1973)
Min Temperature 23 °F 26 °F 6 °F (1950)
Degree Days  
Heating Degree Days 30 31  
Month to date heating degree days 736 752  
Since 1 July heating degree days 1657 1650  
Cooling Degree Days 0 0  
Month to date cooling degree days 0 0  
Year to date cooling degree days 1241 1145  
Moisture  
Dew Point 20 °F    
Average Humidity 60    
Maximum Humidity 88    
Minimum Humidity 31    
Precipitation  
Precipitation 0.00 in 0.10 in 1.76 in (1930)
Month to date precipitation 3.85 3.12  
Year to date precipitation 46.98 42.72  
Snow  
Snow 0.00 in 0.10 in 5.40 in (1990)
Month to date snowfall 11.9 2.9  
Since 1 July snowfall 11.9 3.3  
Snow Depth 0.00 in    
Sea Level Pressure  
Sea Level Pressure 30.36 in    
Wind  
Wind Speed 5 mph (WSW)    
Max Wind Speed 16 mph    
Max Gust Speed 20 mph    
Visibility 10 miles    
Events      
T = Trace of Precipitation, MM = Missing Value Source: NWS Daily Summary

Daily Weather History Graph

Daily Weather History Graph

Search for Another Location

Airport:

Trip Planner

Search our weather history database for the weather conditions in past years. The results will help you decide how hot, cold, wet, or windy it might be!

Date:

Astronomy

Dec. 27, 2013 Rise Set
Actual Time 7:22 AM EST 4:45 PM EST
Civil Twilight 6:51 AM EST 5:15 PM EST
Nautical Twilight 6:18 AM EST 5:49 PM EST
Astronomical Twilight 5:45 AM EST 6:22 PM EST
Moon 1:52 AM EST (12/27) 12:53 PM EST (12/27)
Length of Visible Light 10h 23m
Length of Day
9h 22m
Waning Crescent, 28% of the Moon is Illuminated
Dec 27
Waning Crescent
Jan 1
New
Jan 7
First Quarter
Jan 15
Full
Jan 24
Last Quarter

Hourly Weather History & Observations

Time (EST) Temp. Windchill Dew Point Humidity Pressure Visibility Wind Dir Wind Speed Gust Speed Precip Events Conditions
12:51 AM 28.0 °F 24.2 °F 21.9 °F 78% 30.35 in 10.0 mi West 3.5 mph - N/A   Clear
1:51 AM 25.0 °F 20.7 °F 21.0 °F 85% 30.36 in 8.0 mi WNW 3.5 mph - N/A   Clear
2:51 AM 26.1 °F - 21.9 °F 84% 30.37 in 8.0 mi Calm Calm - N/A   Clear
3:51 AM 26.1 °F - 23.0 °F 88% 30.37 in 9.0 mi Calm Calm - N/A   Clear
4:51 AM 27.0 °F 20.5 °F 19.0 °F 72% 30.38 in 10.0 mi WNW 5.8 mph - N/A   Clear
5:51 AM 28.9 °F 25.2 °F 18.0 °F 64% 30.39 in 10.0 mi WNW 3.5 mph - N/A   Clear
6:51 AM 28.0 °F - 19.0 °F 69% 30.40 in 10.0 mi Calm Calm - N/A   Clear
7:51 AM 28.9 °F - 19.0 °F 67% 30.42 in 10.0 mi Calm Calm - N/A   Clear
8:51 AM 32.0 °F - 21.9 °F 66% 30.42 in 10.0 mi Calm Calm - N/A   Clear
9:51 AM 36.0 °F 33.3 °F 23.0 °F 59% 30.42 in 10.0 mi SW 3.5 mph - N/A   Mostly Cloudy
10:51 AM 39.9 °F 34.5 °F 19.0 °F 43% 30.42 in 10.0 mi SW 8.1 mph - N/A   Mostly Cloudy
11:51 AM 42.1 °F 37.1 °F 18.0 °F 38% 30.39 in 10.0 mi SW 8.1 mph - N/A   Scattered Clouds
12:51 PM 45.0 °F 39.3 °F 19.0 °F 36% 30.35 in 10.0 mi SW 11.5 mph - N/A   Clear
1:51 PM 46.0 °F 41.0 °F 18.0 °F 33% 30.33 in 10.0 mi SW 10.4 mph - N/A   Overcast
2:51 PM 44.1 °F 38.6 °F 19.0 °F 37% 30.32 in 10.0 mi WSW 10.4 mph - N/A   Partly Cloudy
3:51 PM 45.0 °F 40.1 °F 18.0 °F 34% 30.32 in 10.0 mi WSW 9.2 mph - N/A   Clear
4:51 PM 41.0 °F 36.4 °F 18.0 °F 40% 30.32 in 10.0 mi WSW 6.9 mph - N/A   Clear
5:51 PM 39.9 °F 35.8 °F 19.9 °F 45% 30.33 in 10.0 mi SW 5.8 mph - N/A   Clear
6:51 PM 39.0 °F 35.7 °F 21.0 °F 49% 30.34 in 10.0 mi WSW 4.6 mph - N/A   Clear
7:51 PM 36.0 °F 31.1 °F 21.9 °F 57% 30.35 in 10.0 mi WSW 5.8 mph - N/A   Clear
8:51 PM 35.1 °F 31.0 °F 21.9 °F 59% 30.35 in 10.0 mi WSW 4.6 mph - N/A   Clear
9:51 PM 33.1 °F 30.0 °F 21.9 °F 64% 30.36 in 10.0 mi NW 3.5 mph - N/A   Clear
10:51 PM 32.0 °F - 23.0 °F 69% 30.34 in 10.0 mi Calm Calm - N/A   Clear
11:51 PM 32.0 °F - 23.0 °F 69% 30.34 in 10.0 mi Calm Calm - N/A   Clear